Home   Weather   Brno   Past weeks
Flag for Czech Republic

Past Weather in Brno, Czech Republic — Yesterday and Last 2 Weeks

Now
53 °F

Overcast.


Feels Like: 52 °F
Forecast: 69 / 46 °F
Wind: 6 mph from Northwest

Location: Brno / Turany

Current Time: May 23, 2019 at 5:35:18 am

Latest Report: May 23, 2019 at 4:00 am


Visibility: 25 mi

Pressure: 29.95 "Hg

Humidity: 81%

Dew Point: 47 °F

Location of BrnoLocation

Past Weather in Brno — Graph

°F

Brno Temperature Yesterday

Maximum temperature yesterday: 59 °F (at 12:00 pm)
Minimum temperature yesterday: 53 °F (at 9:00 pm)
Average temperature yesterday: 56 °F

High & Low Weather Summary for the Past Weeks

 TemperatureHumidityPressure
High71 °F (May 19, 12:00 pm)97% (May 22, 4:00 am)30.45 "Hg (May 22, 4:00 am)
Low34 °F (May 14, 11:00 pm)40% (May 8, 4:00 pm)29.59 "Hg (May 20, 7:00 am)
Average54 °F75%29.91 "Hg
* Reported May 8 4:00 am — May 23 4:00 am, Brno. Weather by CustomWeather, © 2019

Note: Actual official high and low records may vary slightly from our data, if they occured in-between our weather recording intervals... More about our weather records

Advertising

Brno Weather History for the Previous 24 Hours

Scroll right to see more
 ConditionsComfort  
Time TempWeatherWind HumidityBarometerVisibility
4:00 am
Thu, May 23
53 °FOvercast.6 mph81%29.95 "Hg25 mi
3:00 am53 °FOvercast.5 mph81%29.95 "Hg25 mi
2:00 am54 °FPassing clouds.5 mph81%29.93 "Hg25 mi
1:00 am53 °FPassing clouds.6 mph82%29.93 "Hg25 mi
12:00 am54 °FPassing clouds.5 mph81%29.93 "Hg25 mi
11:00 pm
Wed, May 22
53 °FPassing clouds.9 mph85%29.92 "Hg25 mi
10:00 pm54 °FOvercast.8 mph86%29.90 "Hg22 mi
9:00 pm53 °FOvercast.5 mph87%29.91 "Hg19 mi
8:00 pm54 °FOvercast.6 mph85%29.89 "Hg19 mi
7:00 pm54 °FLight rain. Overcast.12 mph84%29.88 "Hg16 mi
6:00 pm55 °FLight rain. Overcast.8 mph89%29.86 "Hg11 mi
5:00 pm56 °FLight rain. Overcast.8 mph88%29.85 "Hg11 mi
4:00 pm56 °FLight rain. Overcast.8 mph89%29.84 "Hg11 mi
3:00 pm57 °FLight rain. Overcast.8 mph88%29.82 "Hg12 mi
2:00 pm57 °FLight rain. Overcast.8 mph87%29.81 "Hg9 mi
1:00 pm59 °FLight rain. Overcast.13 mph81%29.79 "Hg16 mi
12:00 pm59 °FLight rain. Overcast.10 mph84%29.77 "Hg16 mi
11:00 am59 °FLight rain. Overcast.10 mph86%29.75 "Hg9 mi
10:00 am58 °FLight rain. Overcast.9 mph90%29.75 "Hg9 mi
9:00 am59 °FLight rain. Overcast.7 mph89%29.73 "Hg5 mi
8:00 am57 °FLight rain. Overcast.6 mph95%29.73 "Hg5 mi
7:00 am57 °FRain. Overcast.5 mph96%29.72 "Hg5 mi
6:00 am56 °FLight rain. Overcast.5 mph96%29.72 "Hg9 mi
5:00 am56 °FLight rain. Overcast.5 mph96%29.72 "Hg9 mi
Weather by CustomWeather, © 2019

See weather overview